Miscellaneous Local Product
Issued by NWS Hastings, NE

Home | Current Version | Previous Version | Text Only | Print | Product List | Glossary Off
Versions: 1 2 3 4 5 6 7 8 9 10 11 12 13 14 15 16 17 18 19 20 21 22 23 24 25 26 27 28 29 30 31 32 33 34 35 36 37 38 39 40 41 42 43 44 45 46 47 48 49 50

139
AXUS43 KGID 110302
MISGRI

GID CWA HOURLY WEATHER ROUNDUP
NATIONAL WEATHER SERVICE HASTINGS NE
900 PM CST WED FEB 10 2016

NOTE: "FAIR" INDICATES FEW OR NO CLOUDS BELOW 12,000 FEET WITH NO
SIGNIFICANT WEATHER AND/OR OBSTRUCTIONS TO VISIBILITY.

...SOUTH CENTRAL NEBRASKA...

CITY           SKY/WX    TMP DP  RH WIND       PRES   REMARKS
GRAND ISLAND   PTCLDY    30  26  85 NE10      30.07R WCI  21
HASTINGS       CLOUDY    33  28  81 NE10      30.04R WCI  25
KEARNEY        CLOUDY    36  30  80 NE8       30.06R WCI  29
ORD            CLEAR     31  27  85 NE7       30.07R WCI  24
YORK           PTCLDY    30  27  86 NE10      30.06R WCI  21
AURORA         CLOUDY    31  28  90 NE12      30.06R WCI  22
LEXINGTON      CLOUDY    36  30  79 N6        30.05R WCI  31
HOLDREGE       CLOUDY    42  31  63 N13       30.04R
HEBRON         CLOUDY    35  31  85 NE8       30.03R WCI  29

...NEBRASKA PANHANDLE...

CITY           SKY/WX    TMP DP  RH WIND       PRES   REMARKS
CHADRON        CLOUDY    33  25  72 CALM      30.10R
ALLIANCE       CLEAR     33  28  81 W10       30.09R WCI  25
SCOTTSBLUFF    CLEAR     38  26  62 NW9       30.12R WCI  31
SIDNEY         CLOUDY    38  27  64 W16       30.12R WCI  29

...WESTERN AND NORTH CENTRAL NEBRASKA...

CITY           SKY/WX    TMP DP  RH WIND       PRES   REMARKS
VALENTINE      PTCLDY    31  27  85 NE8       30.11R WCI  23
AINSWORTH      CLEAR     31  28  85 NE13      30.09R WCI  22
ONEILL         MOCLDY    27  25  92 NE6       30.10R WCI  20
BROKEN BOW     CLEAR     37  30  75 N10       30.05R WCI  30
IMPERIAL       PTCLDY    42  28  57 NW9       30.07R
NORTH PLATTE   CLOUDY    43  28  55 N13       30.05R
MCCOOK         PTCLDY    38  30  73 W7        30.05R WCI  33

...EASTERN NEBRASKA...

CITY           SKY/WX    TMP DP  RH WIND       PRES   REMARKS
NORFOLK        CLOUDY    22  18  85 NE7       30.11R WCI  13
SO SIOUX CITY  CLOUDY    20  13  74 NE9       30.18R WCI   9
TEKAMAH        CLOUDY    21  16  81 NE9       30.15R WCI  11
COLUMBUS       CLEAR     25  12  58 E7        30.11R WCI  17
ALBION         PTCLDY    28  23  84 N5        30.10R WCI  22
OMAHA EPPLEY   CLOUDY    25  19  78 NE8       30.12R WCI  16
OFFUTT AFB     CLOUDY    25  21  83 NE8       30.10R WCI  16
MILLARD        CLOUDY    26  20  77 NE7       30.10R WCI  19
LINCOLN        CLOUDY    30  24  78 N16       30.08R WCI  19
NEBRASKA CITY  CLOUDY    29  26  86 NE14      30.06R WCI  19
BEATRICE       CLOUDY    33  28  83 N6        30.04R WCI  27
FALLS CITY     CLOUDY    32  22  66 E9        30.01R WCI  24

...NORTHERN KANSAS...

CITY           SKY/WX    TMP DP  RH WIND       PRES   REMARKS
GOODLAND       CLOUDY    43  28  55 NW10      30.09R
HILL CITY      CLOUDY    45  31  58 NW8       30.02R
NORTON         CLEAR     39  27  60 NW13      30.03R WCI  32
PHILLIPSBURG   CLEAR     41  30  65 CALM      30.03R
SMITH CENTER   CLEAR     39  30  70 N13       30.02R WCI  32
BELOIT         CLEAR     39  30  70 W8        29.99R WCI  34
HAYS           CLOUDY    45  25  45 NW9       30.01S
RUSSELL        CLEAR     43  30  60 NW10      29.99R
CONCORDIA      CLOUDY    41  30  65 CALM      29.99R
SALINA         CLOUDY    40  28  62 CALM      29.99R
TOPEKA         CLEAR     40  23  50 NE6       29.99R



USA.gov is the U.S. government's official web portal to all federal, state and local government web resources and services.